Year,Month,Day,Hour,Minute,Value (Times are PST for temperature in C)
2018,08,10,00,00,22.70
2018,08,10,00,01,22.80
2018,08,10,00,02,22.80
2018,08,10,00,03,22.80
2018,08,10,00,04,22.80
2018,08,10,00,05,22.80
2018,08,10,00,06,22.80
2018,08,10,00,07,22.80
2018,08,10,00,08,22.80
2018,08,10,00,09,22.90
2018,08,10,00,10,22.90
2018,08,10,00,11,22.90
2018,08,10,00,12,23.00
2018,08,10,00,13,23.00
2018,08,10,00,14,23.00
2018,08,10,00,15,23.00
2018,08,10,00,16,23.00
2018,08,10,00,17,23.00
2018,08,10,00,18,23.00
2018,08,10,00,19,23.00
2018,08,10,00,20,22.90
2018,08,10,00,21,22.90
2018,08,10,00,22,22.90
2018,08,10,00,23,22.90
2018,08,10,00,24,22.90
2018,08,10,00,25,22.90
2018,08,10,00,26,22.90
2018,08,10,00,27,22.80
2018,08,10,00,28,22.80
2018,08,10,00,29,22.80
2018,08,10,00,30,22.80
2018,08,10,00,31,22.80
2018,08,10,00,32,22.80
2018,08,10,00,33,22.80
2018,08,10,00,34,22.80
2018,08,10,00,35,22.80
2018,08,10,00,36,22.80
2018,08,10,00,37,22.80
2018,08,10,00,38,22.80
2018,08,10,00,39,22.80
2018,08,10,00,40,22.80
2018,08,10,00,41,22.80
2018,08,10,00,42,22.80
2018,08,10,00,43,22.80
2018,08,10,00,44,22.80
2018,08,10,00,45,22.80
2018,08,10,00,46,22.80
2018,08,10,00,47,22.80
2018,08,10,00,48,22.80
2018,08,10,00,49,22.80
2018,08,10,00,50,22.80
2018,08,10,00,51,22.80
2018,08,10,00,52,22.80
2018,08,10,00,53,22.80
2018,08,10,00,54,22.80
2018,08,10,00,55,22.80
2018,08,10,00,56,22.70
2018,08,10,00,57,22.70
2018,08,10,00,58,22.70
2018,08,10,00,59,22.70
2018,08,10,01,00,22.70
2018,08,10,01,01,22.70
2018,08,10,01,02,22.60
2018,08,10,01,03,22.60
2018,08,10,01,04,22.60
2018,08,10,01,05,22.60
2018,08,10,01,06,22.60
2018,08,10,01,07,22.60
2018,08,10,01,08,22.60
2018,08,10,01,09,22.70
2018,08,10,01,10,22.70
2018,08,10,01,11,22.70
2018,08,10,01,12,22.80
2018,08,10,01,13,22.90
2018,08,10,01,14,22.90
2018,08,10,01,15,23.00
2018,08,10,01,16,23.10
2018,08,10,01,17,23.10
2018,08,10,01,18,23.10
2018,08,10,01,19,23.20
2018,08,10,01,20,23.20
2018,08,10,01,21,23.20
2018,08,10,01,22,23.20
2018,08,10,01,23,23.20
2018,08,10,01,24,23.20
2018,08,10,01,25,23.20
2018,08,10,01,26,23.10
2018,08,10,01,27,23.10
2018,08,10,01,28,23.10
2018,08,10,01,29,23.10
2018,08,10,01,30,23.00
2018,08,10,01,31,23.00
2018,08,10,01,32,23.00
2018,08,10,01,33,22.90
2018,08,10,01,34,22.90
2018,08,10,01,35,22.90
2018,08,10,01,36,22.90
2018,08,10,01,37,22.90
2018,08,10,01,38,22.80
2018,08,10,01,39,22.80
2018,08,10,01,40,22.80
2018,08,10,01,41,22.90
2018,08,10,01,42,22.90
2018,08,10,01,43,22.90
2018,08,10,01,44,22.90
2018,08,10,01,45,22.90
2018,08,10,01,46,22.90
2018,08,10,01,47,22.90
2018,08,10,01,48,22.90
2018,08,10,01,49,22.90
2018,08,10,01,50,22.90
2018,08,10,01,51,22.90
2018,08,10,01,52,22.90
2018,08,10,01,53,22.90
2018,08,10,01,54,22.90
2018,08,10,01,55,23.00
2018,08,10,01,56,23.00
2018,08,10,01,57,23.00
2018,08,10,01,58,23.10
2018,08,10,01,59,23.10
2018,08,10,02,00,23.20
2018,08,10,02,01,23.30
2018,08,10,02,02,23.30
2018,08,10,02,03,23.40
2018,08,10,02,04,23.40
2018,08,10,02,05,23.50
2018,08,10,02,06,23.50
2018,08,10,02,07,23.60
2018,08,10,02,08,23.60
2018,08,10,02,09,23.70
2018,08,10,02,10,23.70
2018,08,10,02,11,23.70
2018,08,10,02,12,23.70
2018,08,10,02,13,23.80
2018,08,10,02,14,23.80
2018,08,10,02,15,23.80
2018,08,10,02,16,23.80
2018,08,10,02,17,23.80
2018,08,10,02,18,23.80
2018,08,10,02,19,23.80
2018,08,10,02,20,23.90
2018,08,10,02,21,23.90
2018,08,10,02,22,23.90
2018,08,10,02,23,23.90
2018,08,10,02,24,23.90
2018,08,10,02,25,23.90
2018,08,10,02,26,23.90
2018,08,10,02,27,24.00
2018,08,10,02,28,24.00
2018,08,10,02,29,24.00
2018,08,10,02,30,24.00
2018,08,10,02,31,24.00
2018,08,10,02,32,24.00
2018,08,10,02,33,24.00
2018,08,10,02,34,24.00
2018,08,10,02,35,24.10
2018,08,10,02,36,24.10
2018,08,10,02,37,24.10
2018,08,10,02,38,24.10
2018,08,10,02,39,24.10
2018,08,10,02,40,24.10
2018,08,10,02,41,24.10
2018,08,10,02,42,24.10
2018,08,10,02,43,24.10
2018,08,10,02,44,24.00
2018,08,10,02,45,24.00
2018,08,10,02,46,24.00
2018,08,10,02,47,24.00
2018,08,10,02,48,23.90
2018,08,10,02,49,23.90
2018,08,10,02,50,23.90
2018,08,10,02,51,23.90
2018,08,10,02,52,23.90
2018,08,10,02,53,23.90
2018,08,10,02,54,23.80
2018,08,10,02,55,23.80
2018,08,10,02,56,23.80
2018,08,10,02,57,23.70
2018,08,10,02,58,23.70
2018,08,10,02,59,23.70
2018,08,10,03,00,23.60
2018,08,10,03,01,23.60
2018,08,10,03,02,23.50
2018,08,10,03,03,23.50
2018,08,10,03,04,23.40
2018,08,10,03,05,23.40
2018,08,10,03,06,23.40
2018,08,10,03,07,23.30
2018,08,10,03,08,23.30
2018,08,10,03,09,23.30
2018,08,10,03,10,23.20
2018,08,10,03,11,23.20
2018,08,10,03,12,23.10
2018,08,10,03,13,23.10
2018,08,10,03,14,23.00
2018,08,10,03,15,23.00
2018,08,10,03,16,22.90
2018,08,10,03,17,22.80
2018,08,10,03,18,22.80
2018,08,10,03,19,22.70
2018,08,10,03,20,22.70
2018,08,10,03,21,22.70
2018,08,10,03,22,22.60
2018,08,10,03,23,22.60
2018,08,10,03,24,22.60
2018,08,10,03,25,22.60
2018,08,10,03,26,22.50
2018,08,10,03,27,22.50
2018,08,10,03,28,22.40
2018,08,10,03,29,22.40
2018,08,10,03,30,22.40
2018,08,10,03,31,22.30
2018,08,10,03,32,22.30
2018,08,10,03,33,22.30
2018,08,10,03,34,22.30
2018,08,10,03,35,22.30
2018,08,10,03,36,22.30
2018,08,10,03,37,22.30
2018,08,10,03,38,22.30
2018,08,10,03,39,22.20
2018,08,10,03,40,22.20
2018,08,10,03,41,22.10
2018,08,10,03,42,22.10
2018,08,10,03,43,22.10
2018,08,10,03,44,22.10
2018,08,10,03,45,22.10
2018,08,10,03,46,22.20
2018,08,10,03,47,22.20
2018,08,10,03,48,22.20
2018,08,10,03,49,22.20
2018,08,10,03,50,22.20
2018,08,10,03,51,22.20
2018,08,10,03,52,22.20
2018,08,10,03,53,22.20
2018,08,10,03,54,22.30
2018,08,10,03,55,22.30
2018,08,10,03,56,22.30
2018,08,10,03,57,22.30
2018,08,10,03,58,22.40
2018,08,10,03,59,22.40
2018,08,10,04,00,22.40
2018,08,10,04,01,22.40
2018,08,10,04,02,22.40
2018,08,10,04,03,22.40
2018,08,10,04,04,22.40
2018,08,10,04,05,22.40
2018,08,10,04,06,22.40
2018,08,10,04,07,22.40
2018,08,10,04,08,22.50
2018,08,10,04,09,22.50
2018,08,10,04,10,22.50
2018,08,10,04,11,22.50
2018,08,10,04,12,22.60
2018,08,10,04,13,22.60
2018,08,10,04,14,22.60
2018,08,10,04,15,22.60
2018,08,10,04,16,22.60
2018,08,10,04,17,22.60
2018,08,10,04,18,22.70
2018,08,10,04,19,22.70
2018,08,10,04,20,22.70
2018,08,10,04,21,22.70
2018,08,10,04,22,22.60
2018,08,10,04,23,22.60
2018,08,10,04,24,22.60
2018,08,10,04,25,22.50
2018,08,10,04,26,22.50
2018,08,10,04,27,22.40
2018,08,10,04,28,22.40
2018,08,10,04,29,22.40
2018,08,10,04,30,22.40
2018,08,10,04,31,22.30
2018,08,10,04,32,22.30
2018,08,10,04,33,22.20
2018,08,10,04,34,22.20
2018,08,10,04,35,22.20
2018,08,10,04,36,22.20
2018,08,10,04,37,22.10
2018,08,10,04,38,22.10
2018,08,10,04,39,22.20
2018,08,10,04,40,22.20
2018,08,10,04,41,22.20
2018,08,10,04,42,22.20
2018,08,10,04,43,22.20
2018,08,10,04,44,22.20
2018,08,10,04,45,22.20
2018,08,10,04,46,22.20
2018,08,10,04,47,22.20
2018,08,10,04,48,22.20
2018,08,10,04,49,22.20
2018,08,10,04,50,22.20
2018,08,10,04,51,22.20
2018,08,10,04,52,22.20
2018,08,10,04,53,22.30
2018,08,10,04,54,22.30
2018,08,10,04,55,22.30
2018,08,10,04,56,22.30
2018,08,10,04,57,22.30
2018,08,10,04,58,22.30
2018,08,10,04,59,22.30
2018,08,10,05,00,22.30
2018,08,10,05,01,22.30
2018,08,10,05,02,22.30
2018,08,10,05,03,22.30
2018,08,10,05,04,22.30
2018,08,10,05,05,22.30
2018,08,10,05,06,22.30
2018,08,10,05,07,22.30
2018,08,10,05,08,22.20
2018,08,10,05,09,22.20
2018,08,10,05,10,22.20
2018,08,10,05,11,22.20
2018,08,10,05,12,22.20
2018,08,10,05,13,22.10
2018,08,10,05,14,22.10
2018,08,10,05,15,22.10
2018,08,10,05,16,22.10
2018,08,10,05,17,22.10
2018,08,10,05,18,22.00
2018,08,10,05,19,22.00
2018,08,10,05,20,22.00
2018,08,10,05,21,21.90
2018,08,10,05,22,21.90
2018,08,10,05,23,21.90
2018,08,10,05,24,21.80
2018,08,10,05,25,21.80
2018,08,10,05,26,21.80
2018,08,10,05,27,21.70
2018,08,10,05,28,21.70
2018,08,10,05,29,21.60
2018,08,10,05,30,21.60
2018,08,10,05,31,21.60
2018,08,10,05,32,21.60
2018,08,10,05,33,21.50
2018,08,10,05,34,21.50
2018,08,10,05,35,21.40
2018,08,10,05,36,21.40
2018,08,10,05,37,21.40
2018,08,10,05,38,21.40
2018,08,10,05,39,21.40
2018,08,10,05,40,21.40
2018,08,10,05,41,21.40
2018,08,10,05,42,21.30
2018,08,10,05,43,21.30
2018,08,10,05,44,21.30
2018,08,10,05,45,21.30
2018,08,10,05,46,21.30
2018,08,10,05,47,21.30
2018,08,10,05,48,21.20
2018,08,10,05,49,21.20
2018,08,10,05,50,21.20
2018,08,10,05,51,21.10
2018,08,10,05,52,21.10
2018,08,10,05,53,21.10
2018,08,10,05,54,21.00
2018,08,10,05,55,21.00
2018,08,10,05,56,21.00
2018,08,10,05,57,20.90
2018,08,10,05,58,20.90
2018,08,10,05,59,20.90
2018,08,10,06,00,20.90
2018,08,10,06,01,20.90
2018,08,10,06,02,20.80
2018,08,10,06,03,20.80
2018,08,10,06,04,20.80
2018,08,10,06,05,20.80
2018,08,10,06,06,20.80
2018,08,10,06,07,20.80
2018,08,10,06,08,20.70
2018,08,10,06,09,20.70
2018,08,10,06,10,20.70
2018,08,10,06,11,20.70
2018,08,10,06,12,20.70
2018,08,10,06,13,20.70
2018,08,10,06,14,20.70
2018,08,10,06,15,20.60
2018,08,10,06,16,20.60
2018,08,10,06,17,20.60
2018,08,10,06,18,20.60
2018,08,10,06,19,20.60
2018,08,10,06,20,20.60
2018,08,10,06,21,20.60
2018,08,10,06,22,20.60
2018,08,10,06,23,20.70
2018,08,10,06,24,20.70
2018,08,10,06,25,20.70
2018,08,10,06,26,20.70
2018,08,10,06,27,20.70
2018,08,10,06,28,20.70
2018,08,10,06,29,20.60
2018,08,10,06,30,20.60
2018,08,10,06,31,20.60
2018,08,10,06,32,20.60
2018,08,10,06,33,20.60
2018,08,10,06,34,20.60
2018,08,10,06,35,20.60
2018,08,10,06,36,20.50
2018,08,10,06,37,20.50
2018,08,10,06,38,20.40
2018,08,10,06,39,20.40
2018,08,10,06,40,20.40
2018,08,10,06,41,20.30
2018,08,10,06,42,20.30
2018,08,10,06,43,20.30
2018,08,10,06,44,20.30
2018,08,10,06,45,20.30
2018,08,10,06,46,20.30
2018,08,10,06,47,20.20
2018,08,10,06,48,20.20
2018,08,10,06,49,20.20
2018,08,10,06,50,20.30
2018,08,10,06,51,20.30
2018,08,10,06,52,20.30
2018,08,10,06,53,20.30
2018,08,10,06,54,20.30
2018,08,10,06,55,20.40
2018,08,10,06,56,20.40
2018,08,10,06,57,20.40
2018,08,10,06,58,20.50
2018,08,10,06,59,20.50
2018,08,10,07,00,20.60
2018,08,10,07,01,20.60
2018,08,10,07,02,20.60
2018,08,10,07,03,20.70
2018,08,10,07,04,20.70
2018,08,10,07,05,20.70
2018,08,10,07,06,20.80
2018,08,10,07,07,20.80
2018,08,10,07,08,20.80
2018,08,10,07,09,20.80
2018,08,10,07,10,20.80
2018,08,10,07,11,20.80
2018,08,10,07,12,20.90
2018,08,10,07,13,20.90
2018,08,10,07,14,20.90
2018,08,10,07,15,20.90
2018,08,10,07,16,20.90
2018,08,10,07,17,20.90
2018,08,10,07,18,20.90
2018,08,10,07,19,20.90
2018,08,10,07,20,20.90
2018,08,10,07,21,20.90
2018,08,10,07,22,20.90
2018,08,10,07,23,20.90
2018,08,10,07,24,20.80
2018,08,10,07,25,20.80
2018,08,10,07,26,20.80
2018,08,10,07,27,20.80
2018,08,10,07,28,20.80
2018,08,10,07,29,20.80
2018,08,10,07,30,20.80
2018,08,10,07,31,20.80
2018,08,10,07,32,20.80
2018,08,10,07,33,20.80
2018,08,10,07,34,20.80
2018,08,10,07,35,20.80
2018,08,10,07,36,20.80
2018,08,10,07,37,20.80
2018,08,10,07,38,20.80
2018,08,10,07,39,20.80
2018,08,10,07,40,20.80
2018,08,10,07,41,20.80
2018,08,10,07,42,20.80
2018,08,10,07,43,20.80
2018,08,10,07,44,20.80
2018,08,10,07,45,20.80
2018,08,10,07,46,20.80
2018,08,10,07,47,20.80
2018,08,10,07,48,20.80
2018,08,10,07,49,20.80
2018,08,10,07,50,20.80
2018,08,10,07,51,20.80
2018,08,10,07,52,20.80
2018,08,10,07,53,20.80
2018,08,10,07,54,20.70
2018,08,10,07,55,20.80
2018,08,10,07,56,20.80
2018,08,10,07,57,20.80
2018,08,10,07,58,20.80
2018,08,10,07,59,20.80
2018,08,10,08,00,20.80
2018,08,10,08,01,20.90
2018,08,10,08,02,20.90
2018,08,10,08,03,20.90
2018,08,10,08,04,20.90
2018,08,10,08,05,21.00
2018,08,10,08,06,21.00
2018,08,10,08,07,21.10
2018,08,10,08,08,21.10
2018,08,10,08,09,21.10
2018,08,10,08,10,21.10
2018,08,10,08,11,21.20
2018,08,10,08,12,21.20
2018,08,10,08,13,21.20
2018,08,10,08,14,21.20
2018,08,10,08,15,21.20
2018,08,10,08,16,21.20
2018,08,10,08,17,21.30
2018,08,10,08,18,21.30
2018,08,10,08,19,21.30
2018,08,10,08,20,21.30
2018,08,10,08,21,21.30
2018,08,10,08,22,21.30
2018,08,10,08,23,21.40
2018,08,10,08,24,21.40
2018,08,10,08,25,21.40
2018,08,10,08,26,21.40
2018,08,10,08,27,21.40
2018,08,10,08,28,21.50
2018,08,10,08,29,21.50
2018,08,10,08,30,21.50
2018,08,10,08,31,21.60
2018,08,10,08,32,21.60
2018,08,10,08,33,21.50
2018,08,10,08,34,21.50
2018,08,10,08,35,21.50
2018,08,10,08,36,21.50
2018,08,10,08,37,21.50
2018,08,10,08,38,21.50
2018,08,10,08,39,21.60
2018,08,10,08,40,21.60
2018,08,10,08,41,21.60
2018,08,10,08,42,21.60
2018,08,10,08,43,21.60
2018,08,10,08,44,21.60
2018,08,10,08,45,21.60
2018,08,10,08,46,21.60
2018,08,10,08,47,21.60
2018,08,10,08,48,21.60
2018,08,10,08,49,21.60
2018,08,10,08,50,21.60
2018,08,10,08,51,21.60
2018,08,10,08,52,21.70
2018,08,10,08,53,21.70
2018,08,10,08,54,21.70
2018,08,10,08,55,21.70
2018,08,10,08,56,21.70
2018,08,10,08,57,21.70
2018,08,10,08,58,21.70
2018,08,10,08,59,21.70
2018,08,10,09,00,21.70
2018,08,10,09,01,21.70
2018,08,10,09,02,21.70
2018,08,10,09,03,21.70
2018,08,10,09,04,21.70
2018,08,10,09,05,21.80
2018,08,10,09,06,21.80
2018,08,10,09,07,21.80
2018,08,10,09,08,21.80
2018,08,10,09,09,21.80
2018,08,10,09,10,21.80
2018,08,10,09,11,21.80
2018,08,10,09,12,21.80
2018,08,10,09,13,21.80
2018,08,10,09,14,21.80
2018,08,10,09,15,21.80
2018,08,10,09,16,21.90
2018,08,10,09,17,22.00
2018,08,10,09,18,22.00
2018,08,10,09,19,22.00
2018,08,10,09,20,22.10
2018,08,10,09,21,22.10
2018,08,10,09,22,22.10
2018,08,10,09,23,22.10
2018,08,10,09,24,22.10
2018,08,10,09,25,22.20
2018,08,10,09,26,22.20
2018,08,10,09,27,22.30
2018,08,10,09,28,22.30
2018,08,10,09,29,22.30
2018,08,10,09,30,22.40
2018,08,10,09,31,22.40
2018,08,10,09,32,22.40
2018,08,10,09,33,22.40
2018,08,10,09,34,22.40
2018,08,10,09,35,22.40
2018,08,10,09,36,22.40
2018,08,10,09,37,22.40
2018,08,10,09,38,22.40
2018,08,10,09,39,22.40
2018,08,10,09,40,22.40
2018,08,10,09,41,22.50
2018,08,10,09,42,22.50
2018,08,10,09,43,22.50
2018,08,10,09,44,22.50
2018,08,10,09,45,22.50
2018,08,10,09,46,22.60
2018,08,10,09,47,22.60
2018,08,10,09,48,22.60
2018,08,10,09,49,22.70
2018,08,10,09,50,22.70
2018,08,10,09,51,22.70
2018,08,10,09,52,22.70
2018,08,10,09,53,22.70
2018,08,10,09,54,22.70
2018,08,10,09,55,22.70
2018,08,10,09,56,22.70
2018,08,10,09,57,22.70
2018,08,10,09,58,22.70
2018,08,10,09,59,22.70
2018,08,10,10,00,22.70
2018,08,10,10,01,22.70
2018,08,10,10,02,22.70
2018,08,10,10,03,22.70
2018,08,10,10,04,22.80
2018,08,10,10,05,22.80
2018,08,10,10,06,22.80
2018,08,10,10,07,22.90
2018,08,10,10,08,23.00
2018,08,10,10,09,23.00
2018,08,10,10,10,23.00
2018,08,10,10,11,23.10
2018,08,10,10,12,23.10
2018,08,10,10,13,23.10
2018,08,10,10,14,23.20
2018,08,10,10,15,23.20
2018,08,10,10,16,23.20
2018,08,10,10,17,23.20
2018,08,10,10,18,23.20
2018,08,10,10,19,23.20
2018,08,10,10,20,23.20
2018,08,10,10,21,23.20
2018,08,10,10,22,23.20
2018,08,10,10,23,23.20
2018,08,10,10,24,23.20
2018,08,10,10,25,23.20
2018,08,10,10,26,23.20
2018,08,10,10,27,23.20
2018,08,10,10,28,23.30
2018,08,10,10,29,23.30
2018,08,10,10,30,23.30
2018,08,10,10,31,23.40
2018,08,10,10,32,23.40
2018,08,10,10,33,23.40
2018,08,10,10,34,23.50
2018,08,10,10,35,23.50
2018,08,10,10,36,23.60
2018,08,10,10,37,23.70
2018,08,10,10,38,23.70
2018,08,10,10,39,23.80
2018,08,10,10,40,23.80
2018,08,10,10,41,23.90
2018,08,10,10,42,24.00
2018,08,10,10,43,24.00
2018,08,10,10,44,24.10
2018,08,10,10,45,24.10
2018,08,10,10,46,24.10
2018,08,10,10,47,24.20
2018,08,10,10,48,24.20
2018,08,10,10,49,24.20
2018,08,10,10,50,24.30
2018,08,10,10,51,24.30
2018,08,10,10,52,24.30
2018,08,10,10,53,24.40
2018,08,10,10,54,24.40
2018,08,10,10,55,24.40
2018,08,10,10,56,24.40
2018,08,10,10,57,24.40
2018,08,10,10,58,24.40
2018,08,10,10,59,24.40
2018,08,10,11,00,24.40
2018,08,10,11,01,24.40
2018,08,10,11,02,24.40
2018,08,10,11,03,24.40
2018,08,10,11,04,24.40
2018,08,10,11,05,24.40
2018,08,10,11,06,24.30
2018,08,10,11,07,24.30
2018,08,10,11,08,24.30
2018,08,10,11,09,24.40
2018,08,10,11,10,24.40
2018,08,10,11,11,24.50
2018,08,10,11,12,24.50
2018,08,10,11,13,24.50
2018,08,10,11,14,24.60
2018,08,10,11,15,24.60
2018,08,10,11,16,24.60
2018,08,10,11,17,24.60
2018,08,10,11,18,24.70
2018,08,10,11,19,24.70
2018,08,10,11,20,24.70
2018,08,10,11,21,24.70
2018,08,10,11,22,24.70
2018,08,10,11,23,24.70
2018,08,10,11,24,24.70
2018,08,10,11,25,24.80
2018,08,10,11,26,24.80
2018,08,10,11,27,24.90
2018,08,10,11,28,24.90
2018,08,10,11,29,25.00
2018,08,10,11,30,24.90
2018,08,10,11,31,24.90
2018,08,10,11,32,24.80
2018,08,10,11,33,24.80
2018,08,10,11,34,24.80
2018,08,10,11,35,24.90
2018,08,10,11,36,24.90
2018,08,10,11,37,25.00
2018,08,10,11,38,25.00
2018,08,10,11,39,25.10
2018,08,10,11,40,25.10
2018,08,10,11,41,25.20
2018,08,10,11,42,25.20
2018,08,10,11,43,25.20
2018,08,10,11,44,25.10
2018,08,10,11,45,25.10
2018,08,10,11,46,25.10
2018,08,10,11,47,25.10
2018,08,10,11,48,25.10
2018,08,10,11,49,25.10
2018,08,10,11,50,25.20
2018,08,10,11,51,25.20
2018,08,10,11,52,25.20
2018,08,10,11,53,25.20
2018,08,10,11,54,25.20
2018,08,10,11,55,25.20
2018,08,10,11,56,25.20
2018,08,10,11,57,25.20
2018,08,10,11,58,25.20
2018,08,10,11,59,25.20
2018,08,10,12,00,25.20
2018,08,10,12,01,25.20
2018,08,10,12,02,25.20
2018,08,10,12,03,25.30
2018,08,10,12,04,25.30
2018,08,10,12,05,25.30
2018,08,10,12,06,25.30
2018,08,10,12,07,25.30
2018,08,10,12,08,25.30
2018,08,10,12,09,25.30
2018,08,10,12,10,25.40
2018,08,10,12,11,25.40
2018,08,10,12,12,25.40
2018,08,10,12,13,25.30
2018,08,10,12,14,25.30
2018,08,10,12,15,25.30
2018,08,10,12,16,25.40
2018,08,10,12,17,25.40
2018,08,10,12,18,25.40
2018,08,10,12,19,25.40
2018,08,10,12,20,25.40
2018,08,10,12,21,25.30
2018,08,10,12,22,25.30
2018,08,10,12,23,25.30
2018,08,10,12,24,25.30
2018,08,10,12,25,25.40
2018,08,10,12,26,25.50
2018,08,10,12,27,25.50
2018,08,10,12,28,25.50
2018,08,10,12,29,25.50
2018,08,10,12,30,25.50
2018,08,10,12,31,25.50
2018,08,10,12,32,25.60
2018,08,10,12,33,25.60
2018,08,10,12,34,25.60
2018,08,10,12,35,25.70
2018,08,10,12,36,25.60
2018,08,10,12,37,25.60
2018,08,10,12,38,25.50
2018,08,10,12,39,25.50
2018,08,10,12,40,25.50
2018,08,10,12,41,25.50
2018,08,10,12,42,25.50
2018,08,10,12,43,25.40
2018,08,10,12,44,25.40
2018,08,10,12,45,25.50
2018,08,10,12,46,25.50
2018,08,10,12,47,25.50
2018,08,10,12,48,25.50
2018,08,10,12,49,25.40
2018,08,10,12,50,25.40
2018,08,10,12,51,25.30
2018,08,10,12,52,25.20
2018,08,10,12,53,25.10
2018,08,10,12,54,25.10
2018,08,10,12,55,25.10
2018,08,10,12,56,25.20
2018,08,10,12,57,25.30
2018,08,10,12,58,25.30
2018,08,10,12,59,25.40
2018,08,10,13,00,25.40
2018,08,10,13,01,25.50
2018,08,10,13,02,25.50
2018,08,10,13,03,25.60
2018,08,10,13,04,25.50
2018,08,10,13,05,25.50
2018,08,10,13,06,25.60
2018,08,10,13,07,25.70
2018,08,10,13,08,25.70
2018,08,10,13,09,25.80
2018,08,10,13,10,26.00
2018,08,10,13,11,26.10
2018,08,10,13,12,26.20
2018,08,10,13,13,26.30
2018,08,10,13,14,26.30
2018,08,10,13,15,26.30
2018,08,10,13,16,26.20
2018,08,10,13,17,26.20
2018,08,10,13,18,26.10
2018,08,10,13,19,26.10
2018,08,10,13,20,26.10
2018,08,10,13,21,26.00
2018,08,10,13,22,25.90
2018,08,10,13,23,25.90
2018,08,10,13,24,25.90
2018,08,10,13,25,25.80
2018,08,10,13,26,25.90
2018,08,10,13,27,26.00
2018,08,10,13,28,26.00
2018,08,10,13,29,26.10
2018,08,10,13,30,26.20
2018,08,10,13,31,26.20
2018,08,10,13,32,26.30
2018,08,10,13,33,26.30
2018,08,10,13,34,26.30
2018,08,10,13,35,26.30
2018,08,10,13,36,26.30
2018,08,10,13,37,26.30
2018,08,10,13,38,26.40
2018,08,10,13,39,26.50
2018,08,10,13,40,26.50
2018,08,10,13,41,26.50
2018,08,10,13,42,26.60
2018,08,10,13,43,26.60
2018,08,10,13,44,26.70
2018,08,10,13,45,26.80
2018,08,10,13,46,26.90
2018,08,10,13,47,26.90
2018,08,10,13,48,27.00
2018,08,10,13,49,27.10
2018,08,10,13,50,27.10
2018,08,10,13,51,27.10
2018,08,10,13,52,27.10
2018,08,10,13,53,27.10
2018,08,10,13,54,27.10
2018,08,10,13,55,27.10
2018,08,10,13,56,27.10
2018,08,10,13,57,27.10
2018,08,10,13,58,27.10
2018,08,10,13,59,27.10
2018,08,10,14,00,27.10
2018,08,10,14,01,27.10
2018,08,10,14,02,27.20
2018,08,10,14,03,27.10
2018,08,10,14,04,27.10
2018,08,10,14,05,27.10
2018,08,10,14,06,27.10
2018,08,10,14,07,27.20
2018,08,10,14,08,27.20
2018,08,10,14,09,27.20
2018,08,10,14,10,27.20
2018,08,10,14,11,27.30
2018,08,10,14,12,27.30
2018,08,10,14,13,27.40
2018,08,10,14,14,27.60
2018,08,10,14,15,27.60
2018,08,10,14,16,27.60
2018,08,10,14,17,27.70
2018,08,10,14,18,27.70
2018,08,10,14,19,27.70
2018,08,10,14,20,27.80
2018,08,10,14,21,27.80
2018,08,10,14,22,27.80
2018,08,10,14,23,27.90
2018,08,10,14,24,27.90
2018,08,10,14,25,28.00
2018,08,10,14,26,28.00
2018,08,10,14,27,28.00
2018,08,10,14,28,28.10
2018,08,10,14,29,28.10
2018,08,10,14,30,28.20
2018,08,10,14,31,28.20
2018,08,10,14,32,28.30
2018,08,10,14,33,28.40
2018,08,10,14,34,28.40
2018,08,10,14,35,28.50
2018,08,10,14,36,28.50
2018,08,10,14,37,28.50
2018,08,10,14,38,28.50
2018,08,10,14,39,28.60
2018,08,10,14,40,28.60
2018,08,10,14,41,28.60
2018,08,10,14,42,28.60
2018,08,10,14,43,28.60
2018,08,10,14,44,28.50
2018,08,10,14,45,28.50
2018,08,10,14,46,28.50
2018,08,10,14,47,28.60
2018,08,10,14,48,28.60
2018,08,10,14,49,28.70
2018,08,10,14,50,28.70
2018,08,10,14,51,28.70
2018,08,10,14,52,28.70
2018,08,10,14,53,28.80
2018,08,10,14,54,28.80
2018,08,10,14,55,28.80
2018,08,10,14,56,28.90
2018,08,10,14,57,29.00
2018,08,10,14,58,29.00
2018,08,10,14,59,28.90
2018,08,10,15,00,28.90
2018,08,10,15,01,28.90
2018,08,10,15,02,28.80
2018,08,10,15,03,28.80
2018,08,10,15,04,28.80
2018,08,10,15,05,28.80
2018,08,10,15,06,28.80
2018,08,10,15,07,28.90
2018,08,10,15,08,29.00
2018,08,10,15,09,29.10
2018,08,10,15,10,29.10
2018,08,10,15,11,29.10
2018,08,10,15,12,29.10
2018,08,10,15,13,29.00
2018,08,10,15,14,29.00
2018,08,10,15,15,29.00
2018,08,10,15,16,29.10
2018,08,10,15,17,29.10
2018,08,10,15,18,29.10
2018,08,10,15,19,29.10
2018,08,10,15,20,29.10
2018,08,10,15,21,29.20
2018,08,10,15,22,29.30
2018,08,10,15,23,29.30
2018,08,10,15,24,29.40
2018,08,10,15,25,29.40
2018,08,10,15,26,29.50
2018,08,10,15,27,29.50
2018,08,10,15,28,29.50
2018,08,10,15,29,29.60
2018,08,10,15,30,29.60
2018,08,10,15,31,29.60
2018,08,10,15,32,29.60
2018,08,10,15,33,29.60
2018,08,10,15,34,29.70
2018,08,10,15,35,29.70
2018,08,10,15,36,29.80
2018,08,10,15,37,29.80
2018,08,10,15,38,29.90
2018,08,10,15,39,29.90
2018,08,10,15,40,30.00
2018,08,10,15,41,30.00
2018,08,10,15,42,30.10
2018,08,10,15,43,30.10
2018,08,10,15,44,30.10
2018,08,10,15,45,30.00
2018,08,10,15,46,30.00
2018,08,10,15,47,29.90
2018,08,10,15,48,29.90
2018,08,10,15,49,29.90
2018,08,10,15,50,30.00
2018,08,10,15,51,30.00
2018,08,10,15,52,30.10
2018,08,10,15,53,30.20
2018,08,10,15,54,30.20
2018,08,10,15,55,30.20
2018,08,10,15,56,30.20
2018,08,10,15,57,30.20
2018,08,10,15,58,30.20
2018,08,10,15,59,30.30
2018,08,10,16,00,30.40
2018,08,10,16,01,30.50
2018,08,10,16,02,30.60
2018,08,10,16,03,30.70
2018,08,10,16,04,30.60
2018,08,10,16,05,30.60
2018,08,10,16,06,30.70
2018,08,10,16,07,30.70
2018,08,10,16,08,30.70
2018,08,10,16,09,30.80
2018,08,10,16,10,30.80
2018,08,10,16,11,30.80
2018,08,10,16,12,30.70
2018,08,10,16,13,30.70
2018,08,10,16,14,30.70
2018,08,10,16,15,30.60
2018,08,10,16,16,30.70
2018,08,10,16,17,30.70
2018,08,10,16,18,30.80
2018,08,10,16,19,30.90
2018,08,10,16,20,31.10
2018,08,10,16,21,31.30
2018,08,10,16,22,31.50
2018,08,10,16,23,31.70
2018,08,10,16,24,31.80
2018,08,10,16,25,31.90
2018,08,10,16,26,32.00
2018,08,10,16,27,32.00
2018,08,10,16,28,32.00
2018,08,10,16,29,31.90
2018,08,10,16,30,32.00
2018,08,10,16,31,32.10
2018,08,10,16,32,32.20
2018,08,10,16,33,32.20
2018,08,10,16,34,32.20
2018,08,10,16,35,32.20
2018,08,10,16,36,32.20
2018,08,10,16,37,32.20
2018,08,10,16,38,32.20
2018,08,10,16,39,32.30
2018,08,10,16,40,32.20
2018,08,10,16,41,32.20
2018,08,10,16,42,32.20
2018,08,10,16,43,32.10
2018,08,10,16,44,32.00
2018,08,10,16,45,31.90
2018,08,10,16,46,31.90
2018,08,10,16,47,31.80
2018,08,10,16,48,31.80
2018,08,10,16,49,31.90
2018,08,10,16,50,31.80
2018,08,10,16,51,31.90
2018,08,10,16,52,31.90
2018,08,10,16,53,31.90
2018,08,10,16,54,31.90
2018,08,10,16,55,31.90
2018,08,10,16,56,31.80
2018,08,10,16,57,31.70
2018,08,10,16,58,31.60
2018,08,10,16,59,31.50
2018,08,10,17,00,31.40
2018,08,10,17,01,31.40
2018,08,10,17,02,31.40
2018,08,10,17,03,31.50
2018,08,10,17,04,31.50
2018,08,10,17,05,31.60
2018,08,10,17,06,31.60
2018,08,10,17,07,31.50
2018,08,10,17,08,31.40
2018,08,10,17,09,31.50
2018,08,10,17,10,31.40
2018,08,10,17,11,31.40
2018,08,10,17,12,31.40
2018,08,10,17,13,31.40
2018,08,10,17,14,31.40
2018,08,10,17,15,31.40
2018,08,10,17,16,31.30
2018,08,10,17,17,31.20
2018,08,10,17,18,31.20
2018,08,10,17,19,31.20